Location: Bidart
(43.4376°N, 1.5913°W)
Time: 12:02:37
(UTC+00:00)

H-2A DEB - Pass Details

Date: 17 April 2026
Orbit: 585 x 592 km, 98.2° (Epoch: 10 May)

Event Time Altitude Azimuth Distance (km) Brightness Sun altitude
Exits shadow 01:57:05 19° 338° (NNW) 1,437 ? -30.5°
Drops below altitude 10° 01:58:18 10° 341° (NNW) 1,928 ? -30.4°
Sets 02:00:30 0° 345° (NNW) 2,835 ? -30.2°
